Flag Weather past 2 weeks in Krems, Lower Austria, Austria

Now
43 °F

Fog.


Feels Like: 43 °F
Forecast: 39 / 61 °F
Wind: 2 mph from North

Location: Tulln Airport

Current Time: Oct 31, 2014 at 7:17:57 AM

Latest Report: Oct 31, 2014 at 5:50 AM


Visibility: 2 mi

Pressure: 30.33 "Hg

Humidity: 100%

Dew point: 43 °F

Location of KremsLocation

Historic Weather in Krems — Graph

°F

Krems temperature yesterday

Maximum temperature yesterday: 50 °F (at 1:50 PM)
Minimum temperature yesterday: 41 °F (at 9:50 PM)
Average temperature yesterday: 45 °F

Past Weeks' High & Low Weather Summary

 TemperatureHumidityPressure
High68 °F (Oct 16, 2:50 PM)100% (Oct 16, 7:50 AM)30.45 "Hg (Oct 16, 7:50 AM)
Low32 °F (Oct 29, 5:50 AM)60% (Oct 16, 2:50 PM)29.62 "Hg (Oct 21, 10:50 PM)
Average51 °F86%30.11 "Hg
* Reported Oct 16 6:50 AM — Oct 31 5:50 AM, Krems, Weather by CustomWeather, © 2014

Note: Actual official high and low records may vary slightly from our data, if they occured in-between our weather recording intervals... More about our weather records

Advertising

Krems weather history for previous 24 hours

 ConditionsComfort  
Time TempWeatherWind HumidityBarometerVisibility
5:50 AM
Oct 31
43 °FFog.2 mph100%30.33 "Hg2 mi
4:50 AM43 °FFog.5 mph100%30.33 "Hg2 mi
9:50 PM
Oct 30
41 °FFog.2 mph100%30.36 "Hg3 mi
8:50 PM43 °FFog.3 mph93%30.33 "Hg3 mi
7:50 PM43 °FPassing clouds.2 mph93%30.33 "Hg4 mi
6:50 PM43 °FPassing clouds.No wind93%30.33 "Hg4 mi
5:50 PM45 °FPassing clouds.2 mph87%30.30 "Hg4 mi
4:50 PM46 °FPassing clouds.2 mph87%30.30 "Hg4 mi
3:50 PM48 °FPartly sunny.No wind82%30.30 "Hg4 mi
2:50 PM48 °FPartly sunny.2 mph82%30.30 "Hg4 mi
1:50 PM50 °FPartly sunny.2 mph76%30.30 "Hg4 mi
12:50 PM48 °FPartly sunny.No wind76%30.27 "Hg4 mi
11:50 AM48 °FPartly sunny.1 mph76%30.27 "Hg4 mi
10:50 AM46 °FPartly sunny.1 mph82%30.27 "Hg4 mi
9:50 AM46 °FPartly sunny.2 mph82%30.27 "Hg4 mi
8:50 AM45 °FPartly sunny.No wind87%30.27 "Hg4 mi
7:50 AM45 °FPartly sunny.1 mph87%30.27 "Hg4 mi
Weather by CustomWeather, © 2014

See weather overviewHow to use our weather pages